Location: Canet
(43.3261°N, 5.3723°E)
Time: 18:28:05
(UTC+00:00)

Cosmos 1626 Rocket - Pass Details

Date: 24 January 2021
Orbit: 602 x 631 km, 82.5° (Epoch: 07 March)

Event Time Altitude Azimuth Distance (km) Brightness Sun altitude
Rises 17:13:50 0° 162° (SSE) 2,870 7.0 -6.5°
Reaches altitude 10° 17:16:13 10° 152° (SSE) 1,975 6.1 -6.9°
Maximum altitude 17:20:04 31° 90° (E) 1,092 4.3 -7.6°
Drops below altitude 10° 17:23:59 10° 28° (NNE) 2,005 5.8 -8.3°
Sets 17:26:24 0° 19° (NNE) 2,921 6.7 -8.7°
